Hauptseite
METAR-TAF:

METAR-TAF

Flughäfen :

Manassas Regional Airport (Harry P. Davis Field)

Manassas, Virginia, Vereinigte Staaten

Breite: 38-43N, Länge: 077-31W, Höhe: 59 m

Beobachtung

Neuester Wetterbericht von vor 13 Minuten, um 20:56 UTC
Wind 19 kt aus Nord/Nordwest, Böen bis zu 23 kt
Temperatur 19°C
Luftfeuchtigkeit 28%
Luftdruck 1009 hPa
Sichtweite: 16.1 km
Himmel klar

METAR: KHEF 032056Z AUTO 33019G23KT 10SM CLR 19/00 A2979 RMK AO2 PK WND 32030/2011 SLP091 T01940000 56005

Zeit: 17:09 (21:09 UTC)


TAF: fehlend

Wetterbeobachtungen und Prognosen von mehr als 4000 Flughäfen (METAR und TAF Bericht).

Die verfügbaren Stationen werden durch gelbe und rote Markierungen auf der Karte dargestellt.

Führen Sie die Maus auf sie, um den Namen der Station zu sehen.

Darauf klicken, um die Beobachtung von Wetterbeobachtungen und Prognosen zu sehen.

Um die Karte zu ändern : klicken Sie auf den grünen Tasten mit einem schwarzen Kreuz Zum Vergrößern, auf den grünen Button mit einem Gedankenstrich zu verkleinern, oder auf die grünen Pfeile für benachbarte Karten.


METAR-TAF: